#timestamp,LO_Frequency,Hit,StdDev 
1506733215.1,286047001.0,N
1506733216.0,286047001.0,N
1506733235.8,286046999.5,N
1506733255.6,286047000.2,N
1506733275.5,286047007.0,Y
1506733295.3,286047001.9,P
1506733315.1,286047001.7,P
1506733335.9,286047006.8,P
1506733355.7,286047003.0,N
1506733375.5,286046999.9,N
1506733395.4,286046995.0,N
1506733415.2,286046994.0,N
1506733435.0,286046990.7,N
1506733435.9,286046990.7,N
1506733455.8,286046990.7,N
1506733475.6,286046993.2,N
1506733495.4,286046992.4,N
1506733515.3,286046987.7,N
1506733535.1,286046984.7,N
1506733536.0,286046984.7,N
1506733555.8,286046986.1,N
1506733575.7,286046987.3,N
1506733595.5,286046982.7,N
1506733615.3,286046981.4,N
1506733635.1,286046982.6,N
1506733655.9,286046979.0,N
1506733675.7,286046980.2,N
1506733695.5,286046976.1,N
1506733715.4,286046976.1,N
1506733735.2,286046976.1,N
1506733755.0,286046977.1,N
1506733755.9,286046977.1,N
1506733775.8,286046973.0,N
1506733795.6,286046967.7,Y
1506733815.4,286046981.1,P
1506733835.3,286046981.1,P
1506733855.1,286046983.6,P
1506733856.0,286046983.6,Y
1506733875.8,286047000.5,P
1506733895.7,286046998.8,N
1506733915.5,286046996.7,N
1506733935.3,286046999.2,N
1506733955.2,286046998.7,N
1506733975.9,286046996.9,N
1506733995.7,286046997.0,N
1506734015.6,286046996.0,N
1506734035.4,286046994.3,N
1506734055.2,286046992.6,N
1506734075.1,286046992.6,N
1506734076.0,286046992.6,N
1506734095.8,286046991.9,N
1506734115.6,286046991.8,N
1506734135.4,286046991.8,N
1506734155.3,286046995.0,N
1506734175.1,286046995.6,N
1506734195.8,286046995.1,N
1506734215.7,286046995.2,N
1506734235.5,286046996.2,N
1506734255.3,286046994.7,N
1506734275.2,286046993.0,N
1506734295.9,286046992.5,N
1506734315.7,286046993.5,N
1506734335.6,286046993.8,N
1506734355.4,286046991.9,N
1506734375.2,286046990.9,N
1506734395.0,286046990.6,N
1506734396.0,286046990.6,N
1506734415.8,286046989.0,Y
1506734435.6,286046993.6,P
1506734455.5,286046994.1,P
1506734475.3,286046995.0,P
1506734495.1,286047003.8,Y
1506734515.9,286047007.8,P
1506734535.7,286047008.4,N
1506734555.5,286047007.4,N
1506734575.4,286047009.2,N
1506734595.2,286047008.0,N
1506734615.0,286047006.6,N
1506734615.9,286047006.6,N
1506734635.7,286047004.9,N
1506734655.6,286047003.0,N
1506734675.4,286047003.6,N
1506734695.2,286047001.5,N
1506734715.1,286047010.4,N
1506734716.0,286047010.4,N
1506734735.8,286047011.4,N
1506734755.6,286047018.4,Y
1506734775.5,286047016.8,P
1506734795.3,286047021.7,P
1506734815.1,286047022.1,P
1506734835.9,286047025.1,Y
1506734855.7,286047008.4,P
1506734875.5,286047010.8,N
1506734895.4,286047010.4,N
1506734915.2,286047008.3,N
1506734935.0,286047008.9,N
1506734935.9,286047008.9,Y
1506734955.8,286047001.1,P
1506734975.6,286046998.2,N
1506734995.4,286047003.5,N
1506735015.3,286047005.8,N
1506735035.1,286047007.2,N
1506735036.0,286047007.2,N
1506735055.8,286047006.4,N
1506735075.7,286047008.8,N
1506735095.5,286047012.3,Y
1506735115.3,286047006.2,P
1506735135.2,286047004.9,P
1506735155.9,286047006.8,P
1506735175.7,286047007.5,Y
1506735195.6,286046999.7,P
1506735215.4,286046996.5,N
1506735235.2,286046997.3,N
1506735255.1,286046999.1,N
1506735256.0,286046999.1,N
1506735275.8,286047003.4,N
1506735295.6,286047004.1,N
1506735315.5,286047005.6,N
1506735335.3,286047004.8,N
1506735355.1,286047002.9,N
1506735375.9,286047002.0,N
1506735395.7,286046999.9,N
1506735415.5,286046998.7,N
1506735435.3,286046999.7,N
1506735455.2,286046999.7,N
1506735475.0,286047005.9,N
1506735475.9,286047005.9,N
1506735495.7,286047005.3,N
1506735515.6,286047000.4,N
1506735535.4,286046999.0,N
1506735555.2,286046998.0,N
1506735575.1,286046994.0,N
1506735576.0,286046994.0,N
1506735595.8,286046991.0,N
1506735615.6,286046991.4,N
1506735635.5,286046990.9,N
1506735655.3,286046989.6,N
1506735675.1,286046988.4,N
1506735695.9,286046988.2,N
1506735715.7,286046986.9,N
1506735735.5,286046985.4,N
1506735755.3,286046985.2,N
1506735775.2,286046980.6,N
1506735795.0,286046981.7,N
1506735795.9,286046981.7,N
1506735815.7,286046982.0,N
1506735835.6,286046979.5,N
1506735855.4,286046980.4,N
1506735875.2,286046974.2,Y
1506735895.1,286046979.9,P
1506735896.0,286046979.9,P
1506735915.8,286046980.2,P
1506735935.7,286046980.1,Y
1506735955.5,286046995.7,P
1506735975.3,286046994.0,N
1506735995.1,286046991.7,N
1506736015.9,286046991.8,N
1506736035.7,286046994.5,N
1506736055.5,286046994.0,N
1506736075.4,286046991.7,N
1506736095.2,286046992.3,N
1506736115.0,286046993.2,N
1506736115.9,286046993.2,N
1506736135.8,286046994.6,N
1506736155.6,286046994.3,N
1506736175.4,286046990.9,Y
1506736195.3,286046998.1,P
1506736215.1,286046998.2,N
1506736216.0,286046998.2,N
1506736235.8,286046998.7,N
1506736255.7,286046996.8,N
1506736275.5,286046995.4,N
1506736295.3,286046995.7,N
1506736315.2,286046993.4,Y
1506736335.9,286046997.3,P
1506736355.7,286046995.3,P
1506736375.6,286046996.7,P
1506736395.4,286046997.2,Y
1506736415.2,286046996.6,P
1506736435.1,286046997.6,P
1506736436.0,286046997.6,P
1506736455.8,286046994.9,Y
1506736475.6,286046996.5,P
1506736495.5,286046997.3,P
1506736515.3,286046996.7,P
1506736535.1,286046998.9,Y
1506736555.9,286047005.9,P
1506736575.7,286047006.0,N
1506736595.5,286047004.1,N
1506736615.4,286047002.8,N
1506736635.2,286047002.5,N
1506736655.0,286047003.9,N
1506736655.9,286047003.9,N
1506736675.8,286047004.4,N
1506736695.6,286047000.6,N
1506736715.4,286046998.1,N
1506736735.3,286046998.8,N
1506736755.1,286046999.8,N
1506736756.0,286046999.8,N
1506736775.8,286047000.4,N
1506736795.7,286047000.5,N
